Regional Weather Roundup
Issued by NWS

Home | Current Version | Previous Version | Text Only | Print | Product List | Glossary On
Versions: 1 2 3 4 5 6 7 8 9 10 11 12 13 14 15 16 17 18 19 20 21 22 23 24 25 26 27 28 29 30 31 32 33 34 35 36 37 38 39 40 41 42 43 44 45 46 47 48 49 50
000
ASUS43 KDMX 162107
RWRIA

WEATHER ROUNDUP FOR IOWA
NATIONAL WEATHER SERVICE DES MOINES IA
400 PM CDT TUE SEP 16 2014

NOTE: "FAIR" INDICATES FEW OR NO CLOUDS BELOW 12,000 FEET WITH NO
SIGNIFICANT WEATHER AND/OR OBSTRUCTIONS TO VISIBILITY.

* - THESE STATIONS ARE NOT NWS STATIONS...THUS NOT UNDER NWS
QUALITY CONTROL.  THEY ALSO DO NOT REPORT WEATHER SUCH
AS PRECIPITATION OR FOG.

IAZ001>003-012>014-020>022-031>034-043>046-162200-
   NORTHWEST IOWA

CITY           SKY/WX    TMP DP  RH WIND       PRES   REMARKS
CARROLL *      SUNNY     66  45  45 SW6       30.09F
CHEROKEE *     SUNNY     66  46  48 SW6       30.08F
DENISON *      SUNNY     66  46  48 VRB6G14   30.07F
LE MARS *      SUNNY     68  48  49 S9G16     30.06F
ORANGE CITY *  SUNNY     70  46  43 S13       30.06F
SHELDON *      SUNNY     66  46  48 S10G17    30.05F
SIOUX CITY     SUNNY     70  47  43 SE12      30.06F
SPENCER        SUNNY     67  44  43 SW10      30.08F
STORM LAKE *   SUNNY     66  54  63 S9G15     30.08F
$$

IAZ055>058-069>071-079>083-090>094-162200-
   SOUTHWEST IOWA

CITY           SKY/WX    TMP DP  RH WIND       PRES   REMARKS
ATLANTIC *     SUNNY     66  48  52 S9        30.09S
AUDUBON *      SUNNY     66  43  42 S5        30.10F
CLARINDA *     SUNNY     68  48  49 S9        30.10F
COUNCIL BLFS * SUNNY     68  50  52 S8G15     30.07F
CRESTON *      SUNNY     64  48  55 S9        30.10F
HARLAN  *      SUNNY     66  48  52 S10       30.12F
LAMONI         SUNNY     65  47  52 S5        30.11F
SHENANDOAH *   SUNNY     68  48  49 VRB6      30.09F
$$

IAZ047>049-059>061-072>074-084-162200-
   CENTRAL IOWA

CITY           SKY/WX    TMP DP  RH WIND       PRES   REMARKS
AMES           SUNNY     66  46  48 MISG      30.10F
ANKENY *       SUNNY     66  48  52 VRB5      30.10F
CHARITON *     SUNNY     66  48  52 VRB7      30.12F
DES MOINES     SUNNY     67  47  48 S8        30.10F
GRINNELL*      SUNNY     66  43  42 SW6       30.12F
KNOXVILLE *    SUNNY     66  46  48 S6        30.10F
MARSHALLTOWN   SUNNY     66  44  45 S7        30.10F
PELLA *        SUNNY     68  46  45 CALM      30.13F
PERRY *          N/A     68  45  42 S6        30.10F
$$

IAZ004>006-015-016-023>025-035-036-162200-
   NORTH CENTRAL IOWA

CITY           SKY/WX    TMP DP  RH WIND       PRES   REMARKS
ALGONA *       SUNNY     66  45  45 S8G16     30.09F
CLARION *        N/A     66  43  42 SW10      30.10F
ESTHERVILLE    SUNNY     66  44  45 SW8       30.07F
FORT DODGE *   SUNNY     66  45  45 SW6       30.10F
MASON CITY     SUNNY     66  44  45 SW12G17   30.11F
FOREST CITY *  SUNNY     66  45  45 S10       30.09F
IOWA FALLS *     N/A     66  43  42 S7        30.11F
$$

IAZ007>011-017>019-026>030-037>042-050>054-066-162200-
   NORTHEAST IOWA

CITY           SKY/WX    TMP DP  RH WIND       PRES   REMARKS
CEDAR RAPIDS   SUNNY     66  46  48 CALM      30.11F
CHARLES CITY * SUNNY     66  41  39 VRB5G12   30.11F
CLINTON *      SUNNY     64  43  45 CALM      30.15F
DECORAH *      SUNNY     64  43  45 VRB7      30.10F
DUBUQUE        SUNNY     64  43  46 VRB5      30.13F
MONTICELLO *   SUNNY     66  43  42 S6        30.12F
OELWEIN *      SUNNY     66  41  39 SW7G14    30.12F
WATERLOO       SUNNY     66  42  41 SW12      30.10F
$$

IAZ064-065-067-068-078-162200-
   EAST CENTRAL IOWA

CITY           SKY/WX    TMP DP  RH WIND       PRES   REMARKS
DAVENPORT      SUNNY     66  42  41 SW9       30.13F
IOWA CITY      SUNNY     65  45  48 CALM      30.13F
MT. PLEASANT * SUNNY     68  41  37 SW3       30.13F
MUSCATINE *    SUNNY     68  41  37 SW7       30.13F
QUAD CITIES    SUNNY     67  44  43 VRB5      30.13F
$$

IAZ062-063-075>077-085>089-095>099-162200-
   SOUTHEAST IOWA

CITY           SKY/WX    TMP DP  RH WIND       PRES   REMARKS
BURLINGTON     SUNNY     66  45  46 CALM      30.13F
FAIRFIELD *    SUNNY     66  46  48 CALM      30.13F
FORT MADISON * SUNNY     68  43  40 CALM      30.13F
KEOKUK *       SUNNY     66  48  52 VRB3      30.12F
OSKALOOSA *      N/A     66  48  52 S5        30.12F
CENTERVILLE *  SUNNY     66  50  55 S6        30.14F
OTTUMWA        SUNNY     65  47  52 MISG      30.12F
WASHINGTON *   SUNNY     66  45  45 CALM      30.13F
$$

ABBREVIATIONS USED IN REMARKS
   TC - TEMPERATURES IN CELSIUS
  WCI - WIND CHILL INDEX
   HX - HEAT INDEX
  VSB - VISIBILITY
$$



USA.gov is the U.S. government's official web portal to all federal, state and local government web resources and services.